Leominster, MA

9:53 AM EST on February 19, 2017 (GMT -0500)
Fitchburg Municipal

Weather History for KFIT - January, 2014

Change the Weather History Date:

Friday, January 10, 2014

  Actual Average (KORH) Record (KORH)
Temperature  
Mean Temperature 22 °F -  
Max Temperature 37 °F 28 °F 56 °F (2016)
Min Temperature 7 °F 15 °F -8 °F (2004)
Degree Days  
Heating Degree Days 43    
Moisture  
Dew Point 22 °F    
Average Humidity 82    
Maximum Humidity 92    
Minimum Humidity 76    
Precipitation  
Precipitation 0.00 in - - ()
Sea Level Pressure  
Sea Level Pressure 30.43 in    
Wind  
Wind Speed 1 mph (South)    
Max Wind Speed 8 mph    
Max Gust Speed -    
Visibility 8 miles    
Events Snow    
Averages and records for this station are not official NWS values.
T = Trace of Precipitation, MM = Missing Value Source: NWS Daily Summary

Daily Weather History Graph

Daily Weather History Graph

Search for Another Location

Airport or City:

Trip Planner

Search our weather history database for the weather conditions in past years. The results will help you decide how hot, cold, wet, or windy it might be!

Date:

Astronomy

Jan. 10, 2014 Rise Set
Actual Time 7:16 AM EST 4:33 PM EST
Civil Twilight 6:44 AM EST 5:04 PM EST
Nautical Twilight 6:09 AM EST 5:40 PM EST
Astronomical Twilight 5:35 AM EST 6:13 PM EST
Moon 12:37 PM EST (1/10) 2:18 AM EST (1/10)
Length of Visible Light 10h 20m
Length of Day
9h 17m
Waxing Gibbous, 75% of the Moon is Illuminated
Jan 10
Waxing Gibbous
Jan 15
Full
Jan 24
Last Quarter
Jan 30
New
Feb 6
First Quarter

Hourly Weather History & Observations

Time (EST) Temp. Windchill Dew Point Humidity Pressure Visibility Wind Dir Wind Speed Gust Speed Precip Events Conditions
12:52 AM 7.0 °F - 1.9 °F 80% 30.60 in 9.0 mi Calm Calm - N/A   Clear
1:52 AM 8.1 °F - 3.0 °F 80% 30.59 in 9.0 mi Calm Calm - N/A   Clear
2:52 AM 9.0 °F - 5.0 °F 84% 30.59 in 9.0 mi Calm Calm - N/A   Clear
3:52 AM 10.9 °F - 6.1 °F 81% 30.57 in 9.0 mi Calm Calm - N/A   Overcast
4:52 AM 14.0 °F - 8.1 °F 77% 30.56 in 10.0 mi Calm Calm - N/A   Overcast
5:52 AM 15.1 °F - 10.0 °F 80% 30.52 in 7.0 mi Calm Calm - 0.00 in   Overcast
6:52 AM 18.0 °F - 12.9 °F 81% 30.51 in 3.0 mi Calm Calm - 0.00 in Snow Light Snow
7:32 AM 19.0 °F - 15.1 °F 85% 30.48 in 2.5 mi Calm Calm - 0.00 in Snow Light Snow
7:52 AM 19.0 °F - 15.1 °F 85% 30.51 in 2.0 mi Calm Calm - 0.00 in Snow Light Snow
7:59 AM 19.9 °F - 16.0 °F 85% 30.48 in 1.8 mi Calm Calm - 0.00 in Snow Light Snow
8:28 AM 21.0 °F - 17.1 °F 85% 30.48 in 2.5 mi Calm Calm - 0.00 in Snow Light Snow
8:36 AM 21.0 °F - 18.0 °F 88% 30.48 in 4.0 mi Calm Calm - 0.00 in   Overcast
8:52 AM 21.9 °F - 18.0 °F 85% 30.50 in 4.0 mi Calm Calm - 0.00 in   Overcast
9:00 AM 21.9 °F - 18.0 °F 85% 30.47 in 4.0 mi Calm Calm - N/A   Overcast
9:23 AM 24.1 °F - 19.0 °F 81% 30.48 in 6.0 mi Calm Calm - N/A   Haze
9:52 AM 28.0 °F 21.7 °F 21.9 °F 78% 30.49 in 10.0 mi South 5.8 mph - N/A   Mostly Cloudy
10:01 AM 28.0 °F 21.7 °F 21.9 °F 78% 30.47 in 10.0 mi South 5.8 mph - N/A   Mostly Cloudy
10:37 AM 28.9 °F 23.9 °F 23.0 °F 78% 30.47 in 10.0 mi SSE 4.6 mph - N/A   Overcast
10:52 AM 30.0 °F 26.5 °F 24.1 °F 79% 30.48 in 10.0 mi SE 3.5 mph - N/A   Overcast
11:52 AM 30.9 °F 27.5 °F 26.1 °F 82% 30.44 in 10.0 mi South 3.5 mph - N/A   Overcast
12:52 PM 34.0 °F 31.0 °F 28.0 °F 79% 30.40 in 4.0 mi Variable 3.5 mph - 0.00 in Snow Light Snow
1:52 PM 36.0 °F 29.6 °F 28.9 °F 76% 30.38 in 10.0 mi SW 8.1 mph - 0.00 in   Overcast
2:43 PM 37.0 °F 31.6 °F 30.0 °F 76% 30.35 in 10.0 mi South 6.9 mph - N/A   Overcast
2:52 PM 37.0 °F 31.6 °F 30.9 °F 79% 30.37 in 10.0 mi South 6.9 mph - N/A   Overcast
3:09 PM 37.0 °F 33.3 °F 30.9 °F 79% 30.35 in 10.0 mi Variable 4.6 mph - N/A   Overcast
3:24 PM 37.9 °F 34.4 °F 30.9 °F 76% 30.35 in 10.0 mi Variable 4.6 mph - N/A   Overcast
3:52 PM 37.9 °F 33.5 °F 30.9 °F 76% 30.36 in 10.0 mi SW 5.8 mph - N/A   Mostly Cloudy
4:52 PM 36.0 °F 33.3 °F 30.0 °F 79% 30.35 in 10.0 mi North 3.5 mph - N/A   Mostly Cloudy
5:00 PM 36.0 °F 33.3 °F 30.0 °F 79% 30.33 in 10.0 mi Variable 3.5 mph - N/A   Mostly Cloudy
5:49 PM 35.6 °F 31.7 °F 30.2 °F 81% 30.34 in 10.0 mi Variable 4.6 mph - N/A   Overcast
5:52 PM 37.0 °F - 30.9 °F 79% 30.36 in 10.0 mi Calm Calm - N/A   Overcast
6:52 PM 36.0 °F - 30.9 °F 82% 30.35 in 10.0 mi Calm Calm - N/A   Overcast
7:52 PM 34.0 °F - 30.9 °F 89% 30.35 in 10.0 mi Calm Calm - N/A   Overcast
8:52 PM 36.0 °F - 32.0 °F 86% 30.33 in 10.0 mi Calm Calm - N/A   Overcast
9:27 PM 37.0 °F 34.5 °F 33.1 °F 86% 30.31 in 9.0 mi SE 3.5 mph - N/A   Overcast
9:52 PM 35.1 °F - 32.0 °F 89% 30.32 in 7.0 mi Calm Calm - N/A   Overcast
10:52 PM 35.1 °F - 32.0 °F 89% 30.30 in 7.0 mi Calm Calm - N/A   Overcast
11:52 PM 34.0 °F - 32.0 °F 92% 30.27 in 5.0 mi Calm Calm - N/A   Overcast